Year,Month,Day,Hour,Minute,Value (Times are PST for temperature in C)
2019,05,31,00,00,13.70
2019,05,31,00,01,13.60
2019,05,31,00,02,13.60
2019,05,31,00,03,13.50
2019,05,31,00,04,13.50
2019,05,31,00,05,13.40
2019,05,31,00,06,13.40
2019,05,31,00,07,13.40
2019,05,31,00,08,13.30
2019,05,31,00,09,13.30
2019,05,31,00,10,13.30
2019,05,31,00,11,13.20
2019,05,31,00,12,13.20
2019,05,31,00,13,13.20
2019,05,31,00,14,13.20
2019,05,31,00,15,13.20
2019,05,31,00,16,13.10
2019,05,31,00,17,13.10
2019,05,31,00,18,13.10
2019,05,31,00,19,13.10
2019,05,31,00,20,13.10
2019,05,31,00,21,13.10
2019,05,31,00,22,13.10
2019,05,31,00,23,13.10
2019,05,31,00,24,13.10
2019,05,31,00,25,13.10
2019,05,31,00,26,13.10
2019,05,31,00,27,13.10
2019,05,31,00,28,13.10
2019,05,31,00,29,13.10
2019,05,31,00,30,13.10
2019,05,31,00,31,13.10
2019,05,31,00,32,13.10
2019,05,31,00,33,13.00
2019,05,31,00,34,13.00
2019,05,31,00,35,13.00
2019,05,31,00,36,13.00
2019,05,31,00,37,13.00
2019,05,31,00,38,13.00
2019,05,31,00,39,13.00
2019,05,31,00,40,13.00
2019,05,31,00,41,13.00
2019,05,31,00,42,13.00
2019,05,31,00,43,13.00
2019,05,31,00,44,13.00
2019,05,31,00,45,13.00
2019,05,31,00,46,13.00
2019,05,31,00,47,13.00
2019,05,31,00,48,13.00
2019,05,31,00,49,13.00
2019,05,31,00,50,12.90
2019,05,31,00,51,12.90
2019,05,31,00,52,12.90
2019,05,31,00,53,12.90
2019,05,31,00,54,12.90
2019,05,31,00,55,12.90
2019,05,31,00,56,12.90
2019,05,31,00,57,12.90
2019,05,31,00,58,12.90
2019,05,31,00,59,12.90
2019,05,31,01,00,12.90
2019,05,31,01,01,12.90
2019,05,31,01,02,12.90
2019,05,31,01,03,12.90
2019,05,31,01,04,12.90
2019,05,31,01,05,13.00
2019,05,31,01,06,13.00
2019,05,31,01,07,13.00
2019,05,31,01,08,13.00
2019,05,31,01,09,13.00
2019,05,31,01,10,12.90
2019,05,31,01,11,12.90
2019,05,31,01,12,12.90
2019,05,31,01,13,13.00
2019,05,31,01,14,12.90
2019,05,31,01,15,12.90
2019,05,31,01,16,12.90
2019,05,31,01,17,12.90
2019,05,31,01,18,12.90
2019,05,31,01,19,12.90
2019,05,31,01,20,12.90
2019,05,31,01,21,12.90
2019,05,31,01,22,12.90
2019,05,31,01,23,12.90
2019,05,31,01,24,12.90
2019,05,31,01,25,12.90
2019,05,31,01,26,12.80
2019,05,31,01,27,12.80
2019,05,31,01,28,12.80
2019,05,31,01,29,12.80
2019,05,31,01,30,12.90
2019,05,31,01,31,12.90
2019,05,31,01,32,12.80
2019,05,31,01,33,12.90
2019,05,31,01,34,12.80
2019,05,31,01,35,12.80
2019,05,31,01,36,12.80
2019,05,31,01,37,12.80
2019,05,31,01,38,12.80
2019,05,31,01,39,12.90
2019,05,31,01,40,12.90
2019,05,31,01,41,12.90
2019,05,31,01,42,12.90
2019,05,31,01,43,12.80
2019,05,31,01,44,12.80
2019,05,31,01,45,12.80
2019,05,31,01,46,12.80
2019,05,31,01,47,12.80
2019,05,31,01,48,12.80
2019,05,31,01,49,12.80
2019,05,31,01,50,12.80
2019,05,31,01,51,12.80
2019,05,31,01,52,12.80
2019,05,31,01,53,12.80
2019,05,31,01,54,12.80
2019,05,31,01,55,12.80
2019,05,31,01,56,12.70
2019,05,31,01,57,12.70
2019,05,31,01,58,12.70
2019,05,31,01,59,12.70
2019,05,31,02,00,12.70
2019,05,31,02,01,12.70
2019,05,31,02,02,12.70
2019,05,31,02,03,12.70
2019,05,31,02,04,12.70
2019,05,31,02,05,12.70
2019,05,31,02,06,12.70
2019,05,31,02,07,12.70
2019,05,31,02,08,12.70
2019,05,31,02,09,12.70
2019,05,31,02,10,12.70
2019,05,31,02,11,12.60
2019,05,31,02,12,12.60
2019,05,31,02,13,12.60
2019,05,31,02,14,12.60
2019,05,31,02,15,12.60
2019,05,31,02,16,12.60
2019,05,31,02,17,12.60
2019,05,31,02,18,12.60
2019,05,31,02,19,12.50
2019,05,31,02,20,12.50
2019,05,31,02,21,12.50
2019,05,31,02,22,12.50
2019,05,31,02,23,12.50
2019,05,31,02,24,12.40
2019,05,31,02,25,12.40
2019,05,31,02,26,12.40
2019,05,31,02,27,12.40
2019,05,31,02,28,12.40
2019,05,31,02,29,12.40
2019,05,31,02,30,12.40
2019,05,31,02,31,12.30
2019,05,31,02,32,12.30
2019,05,31,02,33,12.30
2019,05,31,02,34,12.30
2019,05,31,02,35,12.30
2019,05,31,02,36,12.30
2019,05,31,02,37,12.20
2019,05,31,02,38,12.20
2019,05,31,02,39,12.20
2019,05,31,02,40,12.20
2019,05,31,02,41,12.20
2019,05,31,02,42,12.20
2019,05,31,02,43,12.20
2019,05,31,02,44,12.10
2019,05,31,02,45,12.10
2019,05,31,02,46,12.10
2019,05,31,02,47,12.10
2019,05,31,02,48,12.00
2019,05,31,02,49,12.00
2019,05,31,02,50,11.90
2019,05,31,02,51,11.90
2019,05,31,02,52,11.90
2019,05,31,02,53,11.90
2019,05,31,02,54,11.90
2019,05,31,02,55,11.80
2019,05,31,02,56,11.80
2019,05,31,02,57,11.80
2019,05,31,02,58,11.80
2019,05,31,02,59,11.80
2019,05,31,03,00,11.80
2019,05,31,03,01,11.80
2019,05,31,03,02,11.80
2019,05,31,03,03,11.80
2019,05,31,03,04,11.70
2019,05,31,03,05,11.70
2019,05,31,03,06,11.70
2019,05,31,03,07,11.70
2019,05,31,03,08,11.70
2019,05,31,03,09,11.70
2019,05,31,03,10,11.70
2019,05,31,03,11,11.70
2019,05,31,03,12,11.60
2019,05,31,03,13,11.60
2019,05,31,03,14,11.60
2019,05,31,03,15,11.60
2019,05,31,03,16,11.60
2019,05,31,03,17,11.60
2019,05,31,03,18,11.60
2019,05,31,03,19,11.60
2019,05,31,03,20,11.60
2019,05,31,03,21,11.70
2019,05,31,03,22,11.70
2019,05,31,03,23,11.70
2019,05,31,03,24,11.70
2019,05,31,03,25,11.70
2019,05,31,03,26,11.70
2019,05,31,03,27,11.70
2019,05,31,03,28,11.70
2019,05,31,03,29,11.70
2019,05,31,03,30,11.70
2019,05,31,03,31,11.70
2019,05,31,03,32,11.70
2019,05,31,03,33,11.70
2019,05,31,03,34,11.60
2019,05,31,03,35,11.60
2019,05,31,03,36,11.60
2019,05,31,03,37,11.60
2019,05,31,03,38,11.60
2019,05,31,03,39,11.70
2019,05,31,03,40,11.70
2019,05,31,03,41,11.60
2019,05,31,03,42,11.60
2019,05,31,03,43,11.60
2019,05,31,03,44,11.60
2019,05,31,03,45,11.60
2019,05,31,03,46,11.70
2019,05,31,03,47,11.70
2019,05,31,03,48,11.70
2019,05,31,03,49,11.70
2019,05,31,03,50,11.70
2019,05,31,03,51,11.70
2019,05,31,03,52,11.70
2019,05,31,03,53,11.60
2019,05,31,03,54,11.60
2019,05,31,03,55,11.50
2019,05,31,03,56,11.50
2019,05,31,03,57,11.50
2019,05,31,03,58,11.50
2019,05,31,03,59,11.50
2019,05,31,04,00,11.50
2019,05,31,04,01,11.60
2019,05,31,04,02,11.60
2019,05,31,04,03,11.60
2019,05,31,04,04,11.60
2019,05,31,04,05,11.60
2019,05,31,04,06,11.60
2019,05,31,04,07,11.60
2019,05,31,04,08,11.60
2019,05,31,04,09,11.60
2019,05,31,04,10,11.60
2019,05,31,04,11,11.60
2019,05,31,04,12,11.60
2019,05,31,04,13,11.50
2019,05,31,04,14,11.50
2019,05,31,04,15,11.50
2019,05,31,04,16,11.50
2019,05,31,04,17,11.50
2019,05,31,04,18,11.50
2019,05,31,04,19,11.60
2019,05,31,04,20,11.60
2019,05,31,04,21,11.60
2019,05,31,04,22,11.60
2019,05,31,04,23,11.60
2019,05,31,04,24,11.60
2019,05,31,04,25,11.60
2019,05,31,04,26,11.60
2019,05,31,04,27,11.60
2019,05,31,04,28,11.60
2019,05,31,04,29,11.60
2019,05,31,04,30,11.60
2019,05,31,04,31,11.60
2019,05,31,04,32,11.50
2019,05,31,04,33,11.50
2019,05,31,04,34,11.50
2019,05,31,04,35,11.40
2019,05,31,04,36,11.40
2019,05,31,04,37,11.30
2019,05,31,04,38,11.30
2019,05,31,04,39,11.30
2019,05,31,04,40,11.30
2019,05,31,04,41,11.30
2019,05,31,04,42,11.30
2019,05,31,04,43,11.30
2019,05,31,04,44,11.30
2019,05,31,04,45,11.30
2019,05,31,04,46,11.30
2019,05,31,04,47,11.20
2019,05,31,04,48,11.20
2019,05,31,04,49,11.20
2019,05,31,04,50,11.20
2019,05,31,04,51,11.20
2019,05,31,04,52,11.20
2019,05,31,04,53,11.20
2019,05,31,04,54,11.10
2019,05,31,04,55,11.20
2019,05,31,04,56,11.20
2019,05,31,04,57,11.10
2019,05,31,04,58,11.10
2019,05,31,04,59,11.10
2019,05,31,05,00,11.10
2019,05,31,05,01,11.10
2019,05,31,05,02,11.10
2019,05,31,05,03,11.00
2019,05,31,05,04,11.00
2019,05,31,05,05,11.00
2019,05,31,05,06,11.00
2019,05,31,05,07,11.00
2019,05,31,05,08,11.00
2019,05,31,05,09,11.00
2019,05,31,05,10,11.10
2019,05,31,05,11,11.10
2019,05,31,05,12,11.20
2019,05,31,05,13,11.20
2019,05,31,05,14,11.20
2019,05,31,05,15,11.20
2019,05,31,05,16,11.20
2019,05,31,05,17,11.20
2019,05,31,05,18,11.20
2019,05,31,05,19,11.20
2019,05,31,05,20,11.10
2019,05,31,05,21,11.10
2019,05,31,05,22,11.10
2019,05,31,05,23,11.10
2019,05,31,05,24,11.10
2019,05,31,05,25,11.10
2019,05,31,05,26,11.10
2019,05,31,05,27,11.10
2019,05,31,05,28,11.10
2019,05,31,05,29,11.20
2019,05,31,05,30,11.20
2019,05,31,05,31,11.10
2019,05,31,05,32,11.10
2019,05,31,05,33,11.10
2019,05,31,05,34,11.00
2019,05,31,05,35,11.00
2019,05,31,05,36,11.00
2019,05,31,05,37,10.90
2019,05,31,05,38,11.00
2019,05,31,05,39,11.00
2019,05,31,05,40,11.10
2019,05,31,05,41,11.10
2019,05,31,05,42,11.10
2019,05,31,05,43,11.10
2019,05,31,05,44,11.10
2019,05,31,05,45,11.10
2019,05,31,05,46,11.10
2019,05,31,05,47,11.10
2019,05,31,05,48,11.20
2019,05,31,05,49,11.20
2019,05,31,05,50,11.20
2019,05,31,05,51,11.20
2019,05,31,05,52,11.20
2019,05,31,05,53,11.20
2019,05,31,05,54,11.20
2019,05,31,05,55,11.20
2019,05,31,05,56,11.20
2019,05,31,05,57,11.20
2019,05,31,05,58,11.20
2019,05,31,05,59,11.20
2019,05,31,06,00,11.20
2019,05,31,06,01,11.30
2019,05,31,06,02,11.30
2019,05,31,06,03,11.30
2019,05,31,06,04,11.40
2019,05,31,06,05,11.40
2019,05,31,06,06,11.40
2019,05,31,06,07,11.50
2019,05,31,06,08,11.50
2019,05,31,06,09,11.60
2019,05,31,06,10,11.60
2019,05,31,06,11,11.70
2019,05,31,06,12,11.70
2019,05,31,06,13,11.70
2019,05,31,06,14,11.80
2019,05,31,06,15,11.80
2019,05,31,06,16,11.80
2019,05,31,06,17,11.90
2019,05,31,06,18,11.90
2019,05,31,06,19,11.90
2019,05,31,06,20,12.00
2019,05,31,06,21,12.00
2019,05,31,06,22,12.10
2019,05,31,06,23,12.10
2019,05,31,06,24,12.10
2019,05,31,06,25,12.10
2019,05,31,06,26,12.20
2019,05,31,06,27,12.20
2019,05,31,06,28,12.30
2019,05,31,06,29,12.30
2019,05,31,06,30,12.40
2019,05,31,06,31,12.40
2019,05,31,06,32,12.50
2019,05,31,06,33,12.60
2019,05,31,06,34,12.60
2019,05,31,06,35,12.60
2019,05,31,06,36,12.60
2019,05,31,06,37,12.60
2019,05,31,06,38,12.60
2019,05,31,06,39,12.70
2019,05,31,06,40,12.80
2019,05,31,06,41,12.80
2019,05,31,06,42,12.90
2019,05,31,06,43,12.90
2019,05,31,06,44,12.80
2019,05,31,06,45,12.80
2019,05,31,06,46,12.90
2019,05,31,06,47,12.90
2019,05,31,06,48,13.00
2019,05,31,06,49,13.10
2019,05,31,06,50,13.20
2019,05,31,06,51,13.20
2019,05,31,06,52,13.20
2019,05,31,06,53,13.20
2019,05,31,06,54,13.20
2019,05,31,06,55,13.20
2019,05,31,06,56,13.20
2019,05,31,06,57,13.20
2019,05,31,06,58,13.20
2019,05,31,06,59,13.30
2019,05,31,07,00,13.30
2019,05,31,07,01,13.40
2019,05,31,07,02,13.40
2019,05,31,07,03,13.50
2019,05,31,07,04,13.50
2019,05,31,07,05,13.60
2019,05,31,07,06,13.70
2019,05,31,07,07,13.80
2019,05,31,07,08,13.90
2019,05,31,07,09,14.10
2019,05,31,07,10,14.20
2019,05,31,07,11,14.30
2019,05,31,07,12,14.30
2019,05,31,07,13,14.30
2019,05,31,07,14,14.30
2019,05,31,07,15,14.40
2019,05,31,07,16,14.50
2019,05,31,07,17,14.60
2019,05,31,07,18,14.70
2019,05,31,07,19,14.80
2019,05,31,07,20,14.90
2019,05,31,07,21,14.90
2019,05,31,07,22,14.90
2019,05,31,07,23,15.00
2019,05,31,07,24,15.00
2019,05,31,07,25,15.00
2019,05,31,07,26,15.00
2019,05,31,07,27,14.90
2019,05,31,07,28,14.90
2019,05,31,07,29,14.90
2019,05,31,07,30,15.00
2019,05,31,07,31,15.00
2019,05,31,07,32,15.00
2019,05,31,07,33,15.00
2019,05,31,07,34,14.90
2019,05,31,07,35,15.00
2019,05,31,07,36,15.00
2019,05,31,07,37,15.10
2019,05,31,07,38,15.10
2019,05,31,07,39,15.10
2019,05,31,07,40,15.10
2019,05,31,07,41,15.10
2019,05,31,07,42,15.20
2019,05,31,07,43,15.20
2019,05,31,07,44,15.30
2019,05,31,07,45,15.40
2019,05,31,07,46,15.50
2019,05,31,07,47,15.50
2019,05,31,07,48,15.60
2019,05,31,07,49,15.60
2019,05,31,07,50,15.50
2019,05,31,07,51,15.50
2019,05,31,07,52,15.50
2019,05,31,07,53,15.40
2019,05,31,07,54,15.40
2019,05,31,07,55,15.40
2019,05,31,07,56,15.40
2019,05,31,07,57,15.40
2019,05,31,07,58,15.40
2019,05,31,07,59,15.40
2019,05,31,08,00,15.40
2019,05,31,08,01,15.30
2019,05,31,08,02,15.30
2019,05,31,08,03,15.30
2019,05,31,08,04,15.30
2019,05,31,08,05,15.30
2019,05,31,08,06,15.40
2019,05,31,08,07,15.40
2019,05,31,08,08,15.50
2019,05,31,08,09,15.50
2019,05,31,08,10,15.60
2019,05,31,08,11,15.60
2019,05,31,08,12,15.70
2019,05,31,08,13,15.70
2019,05,31,08,14,15.70
2019,05,31,08,15,15.70
2019,05,31,08,16,15.70
2019,05,31,08,17,15.70
2019,05,31,08,18,15.70
2019,05,31,08,19,15.70
2019,05,31,08,20,15.70
2019,05,31,08,21,15.70
2019,05,31,08,22,15.70
2019,05,31,08,23,15.70
2019,05,31,08,24,15.70
2019,05,31,08,25,15.70
2019,05,31,08,26,15.70
2019,05,31,08,27,15.70
2019,05,31,08,28,15.60
2019,05,31,08,29,15.60
2019,05,31,08,30,15.60
2019,05,31,08,31,15.60
2019,05,31,08,32,15.60
2019,05,31,08,33,15.60
2019,05,31,08,34,15.60
2019,05,31,08,35,15.60
2019,05,31,08,36,15.60
2019,05,31,08,37,15.60
2019,05,31,08,38,15.70
2019,05,31,08,39,15.70
2019,05,31,08,40,15.70
2019,05,31,08,41,15.80
2019,05,31,08,42,15.80
2019,05,31,08,43,15.90
2019,05,31,08,44,16.00
2019,05,31,08,45,16.00
2019,05,31,08,46,16.10
2019,05,31,08,47,16.10
2019,05,31,08,48,16.10
2019,05,31,08,49,16.20
2019,05,31,08,50,16.20
2019,05,31,08,51,16.30
2019,05,31,08,52,16.30
2019,05,31,08,53,16.30
2019,05,31,08,54,16.40
2019,05,31,08,55,16.40
2019,05,31,08,56,16.40
2019,05,31,08,57,16.50
2019,05,31,08,58,16.50
2019,05,31,08,59,16.50
2019,05,31,09,00,16.50
2019,05,31,09,01,16.50
2019,05,31,09,02,16.50
2019,05,31,09,03,16.60
2019,05,31,09,04,16.60
2019,05,31,09,05,16.70
2019,05,31,09,06,16.70
2019,05,31,09,07,16.80
2019,05,31,09,08,16.80
2019,05,31,09,09,16.70
2019,05,31,09,10,16.60
2019,05,31,09,11,16.50
2019,05,31,09,12,16.50
2019,05,31,09,13,16.50
2019,05,31,09,14,16.60
2019,05,31,09,15,16.60
2019,05,31,09,16,16.70
2019,05,31,09,17,16.80
2019,05,31,09,18,16.90
2019,05,31,09,19,16.90
2019,05,31,09,20,16.90
2019,05,31,09,21,16.90
2019,05,31,09,22,16.80
2019,05,31,09,23,16.70
2019,05,31,09,24,16.60
2019,05,31,09,25,16.60
2019,05,31,09,26,16.60
2019,05,31,09,27,16.60
2019,05,31,09,28,16.60
2019,05,31,09,29,16.60
2019,05,31,09,30,16.70
2019,05,31,09,31,16.70
2019,05,31,09,32,16.80
2019,05,31,09,33,16.80
2019,05,31,09,34,16.70
2019,05,31,09,35,16.60
2019,05,31,09,36,16.70
2019,05,31,09,37,16.70
2019,05,31,09,38,16.80
2019,05,31,09,39,16.80
2019,05,31,09,40,16.80
2019,05,31,09,41,16.80
2019,05,31,09,42,16.90
2019,05,31,09,43,16.90
2019,05,31,09,44,17.00
2019,05,31,09,45,17.00
2019,05,31,09,46,17.00
2019,05,31,09,47,17.00
2019,05,31,09,48,17.10
2019,05,31,09,49,17.20
2019,05,31,09,50,17.30
2019,05,31,09,51,17.40
2019,05,31,09,52,17.40
2019,05,31,09,53,17.50
2019,05,31,09,54,17.50
2019,05,31,09,55,17.50
2019,05,31,09,56,17.60
2019,05,31,09,57,17.60
2019,05,31,09,58,17.70
2019,05,31,09,59,17.70
2019,05,31,10,00,17.80
2019,05,31,10,01,17.90
2019,05,31,10,02,18.00
2019,05,31,10,03,18.00
2019,05,31,10,04,18.10
2019,05,31,10,05,18.20
2019,05,31,10,06,18.30
2019,05,31,10,07,18.30
2019,05,31,10,08,18.30
2019,05,31,10,09,18.40
2019,05,31,10,10,18.50
2019,05,31,10,11,18.60
2019,05,31,10,12,18.70
2019,05,31,10,13,18.70
2019,05,31,10,14,18.70
2019,05,31,10,15,18.70
2019,05,31,10,16,18.70
2019,05,31,10,17,18.80
2019,05,31,10,18,18.80
2019,05,31,10,19,18.80
2019,05,31,10,20,18.70
2019,05,31,10,21,18.70
2019,05,31,10,22,18.70
2019,05,31,10,23,18.70
2019,05,31,10,24,18.80
2019,05,31,10,25,18.70
2019,05,31,10,26,18.60
2019,05,31,10,27,18.60
2019,05,31,10,28,18.60
2019,05,31,10,29,18.50
2019,05,31,10,30,18.50
2019,05,31,10,31,18.50
2019,05,31,10,32,18.50
2019,05,31,10,33,18.50
2019,05,31,10,34,18.50
2019,05,31,10,35,18.50
2019,05,31,10,36,18.60
2019,05,31,10,37,18.60
2019,05,31,10,38,18.60
2019,05,31,10,39,18.60
2019,05,31,10,40,18.50
2019,05,31,10,41,18.30
2019,05,31,10,42,18.20
2019,05,31,10,43,18.20
2019,05,31,10,44,18.30
2019,05,31,10,45,18.40
2019,05,31,10,46,18.50
2019,05,31,10,47,18.70
2019,05,31,10,48,18.70
2019,05,31,10,49,18.80
2019,05,31,10,50,18.80
2019,05,31,10,51,18.80
2019,05,31,10,52,18.90
2019,05,31,10,53,18.90
2019,05,31,10,54,18.90
2019,05,31,10,55,18.90
2019,05,31,10,56,19.00
2019,05,31,10,57,19.10
2019,05,31,10,58,19.20
2019,05,31,10,59,19.10
2019,05,31,11,00,19.00
2019,05,31,11,01,19.00
2019,05,31,11,02,19.10
2019,05,31,11,03,19.20
2019,05,31,11,04,19.20
2019,05,31,11,05,19.30
2019,05,31,11,06,19.40
2019,05,31,11,07,19.50
2019,05,31,11,08,19.50
2019,05,31,11,09,19.60
2019,05,31,11,10,19.50
2019,05,31,11,11,19.40
2019,05,31,11,12,19.30
2019,05,31,11,13,19.40
2019,05,31,11,14,19.50
2019,05,31,11,15,19.60
2019,05,31,11,16,19.70
2019,05,31,11,17,19.90
2019,05,31,11,18,20.00
2019,05,31,11,19,20.00
2019,05,31,11,20,20.00
2019,05,31,11,21,20.10
2019,05,31,11,22,20.20
2019,05,31,11,23,20.20
2019,05,31,11,24,20.10
2019,05,31,11,25,20.10
2019,05,31,11,26,20.10
2019,05,31,11,27,20.10
2019,05,31,11,28,20.10
2019,05,31,11,29,20.00
2019,05,31,11,30,19.90
2019,05,31,11,31,19.90
2019,05,31,11,32,19.70
2019,05,31,11,33,19.60
2019,05,31,11,34,19.60
2019,05,31,11,35,19.60
2019,05,31,11,36,19.60
2019,05,31,11,37,19.70
2019,05,31,11,38,19.80
2019,05,31,11,39,19.80
2019,05,31,11,40,19.90
2019,05,31,11,41,19.90
2019,05,31,11,42,19.90
2019,05,31,11,43,20.00
2019,05,31,11,44,20.00
2019,05,31,11,45,20.10
2019,05,31,11,46,20.10
2019,05,31,11,47,20.10
2019,05,31,11,48,20.00
2019,05,31,11,49,20.00
2019,05,31,11,50,20.00
2019,05,31,11,51,20.00
2019,05,31,11,52,20.10
2019,05,31,11,53,20.10
2019,05,31,11,54,20.10
2019,05,31,11,55,20.10
2019,05,31,11,56,20.10
2019,05,31,11,57,20.00
2019,05,31,11,58,19.90
2019,05,31,11,59,20.00
2019,05,31,12,00,20.20
2019,05,31,12,01,20.30
2019,05,31,12,02,20.40
2019,05,31,12,03,20.50
2019,05,31,12,04,20.50
2019,05,31,12,05,20.50
2019,05,31,12,06,20.50
2019,05,31,12,07,20.50
2019,05,31,12,08,20.60
2019,05,31,12,09,20.60
2019,05,31,12,10,20.60
2019,05,31,12,11,20.70
2019,05,31,12,12,20.80
2019,05,31,12,13,20.80
2019,05,31,12,14,20.80
2019,05,31,12,15,20.90
2019,05,31,12,16,21.00
2019,05,31,12,17,21.10
2019,05,31,12,18,21.20
2019,05,31,12,19,21.20
2019,05,31,12,20,21.20
2019,05,31,12,21,21.00
2019,05,31,12,22,21.00
2019,05,31,12,23,21.10
2019,05,31,12,24,21.20
2019,05,31,12,25,21.20
2019,05,31,12,26,21.20
2019,05,31,12,27,21.20
2019,05,31,12,28,21.20
2019,05,31,12,29,21.10
2019,05,31,12,30,21.00
2019,05,31,12,31,20.90
2019,05,31,12,32,20.90
2019,05,31,12,33,20.90
2019,05,31,12,34,21.00
2019,05,31,12,35,21.10
2019,05,31,12,36,21.10
2019,05,31,12,37,21.10
2019,05,31,12,38,21.20
2019,05,31,12,39,21.20
2019,05,31,12,40,21.20
2019,05,31,12,41,21.20
2019,05,31,12,42,21.20
2019,05,31,12,43,21.40
2019,05,31,12,44,21.50
2019,05,31,12,45,21.60
2019,05,31,12,46,21.80
2019,05,31,12,47,21.80
2019,05,31,12,48,21.70
2019,05,31,12,49,21.80
2019,05,31,12,50,21.90
2019,05,31,12,51,22.00
2019,05,31,12,52,22.10
2019,05,31,12,53,22.20
2019,05,31,12,54,22.20
2019,05,31,12,55,22.20
2019,05,31,12,56,22.20
2019,05,31,12,57,22.30
2019,05,31,12,58,22.30
2019,05,31,12,59,22.30
2019,05,31,13,00,22.20
2019,05,31,13,01,22.10
2019,05,31,13,02,22.10
2019,05,31,13,03,22.20
2019,05,31,13,04,22.30
2019,05,31,13,05,22.40
2019,05,31,13,06,22.50
2019,05,31,13,07,22.50
2019,05,31,13,08,22.40
2019,05,31,13,09,22.40
2019,05,31,13,10,22.40
2019,05,31,13,11,22.40
2019,05,31,13,12,22.30
2019,05,31,13,13,22.20
2019,05,31,13,14,22.20
2019,05,31,13,15,22.20
2019,05,31,13,16,22.10
2019,05,31,13,17,22.20
2019,05,31,13,18,22.20
2019,05,31,13,19,22.10
2019,05,31,13,20,22.20
2019,05,31,13,21,22.20
2019,05,31,13,22,22.20
2019,05,31,13,23,22.20
2019,05,31,13,24,22.20
2019,05,31,13,25,22.20
2019,05,31,13,26,22.10
2019,05,31,13,27,22.10
2019,05,31,13,28,22.00
2019,05,31,13,29,22.00
2019,05,31,13,30,22.00
2019,05,31,13,31,22.00
2019,05,31,13,32,22.00
2019,05,31,13,33,22.10
2019,05,31,13,34,22.20
2019,05,31,13,35,22.30
2019,05,31,13,36,22.40
2019,05,31,13,37,22.60
2019,05,31,13,38,22.80
2019,05,31,13,39,22.90
2019,05,31,13,40,22.90
2019,05,31,13,41,22.80
2019,05,31,13,42,22.70
2019,05,31,13,43,22.60
2019,05,31,13,44,22.40
2019,05,31,13,45,22.40
2019,05,31,13,46,22.30
2019,05,31,13,47,22.30
2019,05,31,13,48,22.30
2019,05,31,13,49,22.30
2019,05,31,13,50,22.30
2019,05,31,13,51,22.40
2019,05,31,13,52,22.30
2019,05,31,13,53,22.30
2019,05,31,13,54,22.30
2019,05,31,13,55,22.30
2019,05,31,13,56,22.30
2019,05,31,13,57,22.30
2019,05,31,13,58,22.30
2019,05,31,13,59,22.30
2019,05,31,14,00,22.30
2019,05,31,14,01,22.20
2019,05,31,14,02,22.10
2019,05,31,14,03,22.10
2019,05,31,14,04,22.00
2019,05,31,14,05,22.00
2019,05,31,14,06,22.10
2019,05,31,14,07,22.20
2019,05,31,14,08,22.30
2019,05,31,14,09,22.50
2019,05,31,14,10,22.50
2019,05,31,14,11,22.50
2019,05,31,14,12,22.50
2019,05,31,14,13,22.40
2019,05,31,14,14,22.40
2019,05,31,14,15,22.40
2019,05,31,14,16,22.50
2019,05,31,14,17,22.50
2019,05,31,14,18,22.60
2019,05,31,14,19,22.60
2019,05,31,14,20,22.40
2019,05,31,14,21,22.30
2019,05,31,14,22,22.40
2019,05,31,14,23,22.30
2019,05,31,14,24,22.40
2019,05,31,14,25,22.40
2019,05,31,14,26,22.50
2019,05,31,14,27,22.50
2019,05,31,14,28,22.50
2019,05,31,14,29,22.50
2019,05,31,14,30,22.50
2019,05,31,14,31,22.50
2019,05,31,14,32,22.50
2019,05,31,14,33,22.60
2019,05,31,14,34,22.60
2019,05,31,14,35,22.60
2019,05,31,14,36,22.50
2019,05,31,14,37,22.50
2019,05,31,14,38,22.50
2019,05,31,14,39,22.70
2019,05,31,14,40,22.80
2019,05,31,14,41,23.00
2019,05,31,14,42,23.10
2019,05,31,14,43,23.10
2019,05,31,14,44,23.10
2019,05,31,14,45,23.10
2019,05,31,14,46,23.00
2019,05,31,14,47,23.00
2019,05,31,14,48,23.00
2019,05,31,14,49,22.90
2019,05,31,14,50,22.90
2019,05,31,14,51,22.80
2019,05,31,14,52,22.70
2019,05,31,14,53,22.70
2019,05,31,14,54,22.80
2019,05,31,14,55,22.90
2019,05,31,14,56,23.00
2019,05,31,14,57,23.00
2019,05,31,14,58,23.10
2019,05,31,14,59,23.00
2019,05,31,15,00,22.90
2019,05,31,15,01,22.80
2019,05,31,15,02,22.70
2019,05,31,15,03,22.80
2019,05,31,15,04,22.80
2019,05,31,15,05,22.80
2019,05,31,15,06,22.80
2019,05,31,15,07,22.70
2019,05,31,15,08,22.80
2019,05,31,15,09,22.90
2019,05,31,15,10,23.00
2019,05,31,15,11,22.90
2019,05,31,15,12,23.00
2019,05,31,15,13,23.00
2019,05,31,15,14,22.90
2019,05,31,15,15,22.80
2019,05,31,15,16,22.80
2019,05,31,15,17,22.80
2019,05,31,15,18,22.70
2019,05,31,15,19,22.70
2019,05,31,15,20,22.90
2019,05,31,15,21,22.90
2019,05,31,15,22,22.90
2019,05,31,15,23,22.80
2019,05,31,15,24,22.70
2019,05,31,15,25,22.70
2019,05,31,15,26,22.70
2019,05,31,15,27,22.70
2019,05,31,15,28,22.70
2019,05,31,15,29,22.80
2019,05,31,15,30,22.80
2019,05,31,15,31,22.90
2019,05,31,15,32,22.90
2019,05,31,15,33,22.90
2019,05,31,15,34,22.90
2019,05,31,15,35,22.80
2019,05,31,15,36,22.80
2019,05,31,15,37,22.80
2019,05,31,15,38,22.80
2019,05,31,15,39,22.80
2019,05,31,15,40,22.80
2019,05,31,15,41,22.70
2019,05,31,15,42,22.60
2019,05,31,15,43,22.60
2019,05,31,15,44,22.60
2019,05,31,15,45,22.60
2019,05,31,15,46,22.70
2019,05,31,15,47,22.70
2019,05,31,15,48,22.70
2019,05,31,15,49,22.80
2019,05,31,15,50,23.00
2019,05,31,15,51,23.10
2019,05,31,15,52,23.20
2019,05,31,15,53,23.20
2019,05,31,15,54,23.20
2019,05,31,15,55,23.20
2019,05,31,15,56,23.30
2019,05,31,15,57,23.30
2019,05,31,15,58,23.50
2019,05,31,15,59,23.60
2019,05,31,16,00,23.70
2019,05,31,16,01,23.80
2019,05,31,16,02,23.90
2019,05,31,16,03,23.90
2019,05,31,16,04,23.80
2019,05,31,16,05,23.70
2019,05,31,16,06,23.70
2019,05,31,16,07,23.60
2019,05,31,16,08,23.60
2019,05,31,16,09,23.50
2019,05,31,16,10,23.50
2019,05,31,16,11,23.40
2019,05,31,16,12,23.40
2019,05,31,16,13,23.40
2019,05,31,16,14,23.40
2019,05,31,16,15,23.30
2019,05,31,16,16,23.30
2019,05,31,16,17,23.30
2019,05,31,16,18,23.20
2019,05,31,16,19,23.20
2019,05,31,16,20,23.30
2019,05,31,16,21,23.40
2019,05,31,16,22,23.50
2019,05,31,16,23,23.70
2019,05,31,16,24,23.80
2019,05,31,16,25,23.90
2019,05,31,16,26,24.00
2019,05,31,16,27,24.00
2019,05,31,16,28,24.00
2019,05,31,16,29,24.10
2019,05,31,16,30,24.10
2019,05,31,16,31,24.10
2019,05,31,16,32,24.20
2019,05,31,16,33,24.30
2019,05,31,16,34,24.30
2019,05,31,16,35,24.30
2019,05,31,16,36,24.20
2019,05,31,16,37,24.20
2019,05,31,16,38,24.30
2019,05,31,16,39,24.30
2019,05,31,16,40,24.40
2019,05,31,16,41,24.50
2019,05,31,16,42,24.40
2019,05,31,16,43,24.40
2019,05,31,16,44,24.30
2019,05,31,16,45,24.20
2019,05,31,16,46,24.10
2019,05,31,16,47,24.00
2019,05,31,16,48,24.10
2019,05,31,16,49,24.10
2019,05,31,16,50,24.20
2019,05,31,16,51,24.30
2019,05,31,16,52,24.40
2019,05,31,16,53,24.50
2019,05,31,16,54,24.60
2019,05,31,16,55,24.80
2019,05,31,16,56,24.90
2019,05,31,16,57,25.10
2019,05,31,16,58,25.20
2019,05,31,16,59,25.40
2019,05,31,17,00,25.50
2019,05,31,17,01,25.60
2019,05,31,17,02,25.60
2019,05,31,17,03,25.50
2019,05,31,17,04,25.40
2019,05,31,17,05,25.30
2019,05,31,17,06,25.10
2019,05,31,17,07,25.10
2019,05,31,17,08,25.10
2019,05,31,17,09,25.20
2019,05,31,17,10,25.20
2019,05,31,17,11,25.30
2019,05,31,17,12,25.30
2019,05,31,17,13,25.40
2019,05,31,17,14,25.50
2019,05,31,17,15,25.50
2019,05,31,17,16,25.50
2019,05,31,17,17,25.50
2019,05,31,17,18,25.50
2019,05,31,17,19,25.50